TITAN 3C TRANSTAGE DEB, 33512

Orbit data source: Space-Track

TITAN 3C TRANSTAGE DEB, 33512 is space debris in GEO originally from a launch on Thu, 26 Sep 1968 UTC launched from the Air Force Eastern Test Range (AFETR). Debris objects in space refer to the collection of defunct objects orbiting the Earth. Examples of debris include non-operational satellites, rocket bodies, and fragments generated from explosions, collisions, or faulty payload assembly.

Loading next visibility...
Identifier
33512, 1968-081N
Orbit
GEO
Country
Flag of USUS
Related business
Manufacturer
Unknown
Mission
Spacecraft
Bus & Motor
Unknown
Mass
Unknown
Launch date (UTC)
1968-09-26 (57 years ago)
Launch vehicle
Unknown
Launch site
Air Force Eastern Test Range (AFETR)
Object type
Payload
Rocket body
Debris
Shape & HBR
Unknown shape, 1.1 m
Radar Cross Section
Medium (>0.1 m² and <1 m²)

Expand to show TLE details & history
Last TLE update: 2 days ago

TLE from 2 days ago
0 TITAN 3C TRANSTAGE DEB
1 33512U 68081N   25347.04168568 -.00000329  00000-0  00000-0 0  9991
2 33512   1.6950  37.1944 0211382 282.9114  74.2161  1.00908441 71757
Epoch: 2025-12-13T01:00Z
TLE epoch observation values (Epoch: 2025-12-13T01:00:01.642Z)
Latitude
Longitude
-60.32213°
Altitude
35,387.857 km
Speed
3.097 km/s
True Right ascension
02h 26m 38s
True Declination
0° 00' 00"
Sunlit
Object was in daylight at epoch
Visualization orbit readout
Latitude
Unknown
Longitude
Unknown
Altitude
Unknown
Speed
Unknown
Apparent Right ascension
Unknown
Apparent Declination
Unknown
Sunlit
N/A
Visualization observer readout
Local Sidereal Time
13:21:34
Azimuth
Unknown
Elevation
Unknown
Doppler factor
Unknown
Orbital elements
Apogee altitude
36,497.687 km
Perigee altitude
34,722.574 km
Semi-major axis
41,988.267 km
Eccentricity
0.02114
Inclination
1.695°
RAAN
37.1944°
Arg. of periapsis
282.9114°
True anomaly
76.56324°
Mean anomaly
74.2161°
Eccentric anomaly
75.38806°
Mean motion
0.25226 °/min
Orbital period
1,427.09 mins
BSTAR
0
Loading maneuver chart data...
Computing Atmospheric mass density...

Documentation

Showing up to 5 results
|